Weather History for Monticello, AR

Change the Weather History Date:

Friday, April 12, 2013

  Actual Average Record
Temperature  
Mean Temperature 56 °F -  
Max Temperature 73 °F 73 °F 87 °F (2006)
Min Temperature 39 °F 50 °F 30 °F (1989)
Degree Days  
Heating Degree Days 9    
Growing Degree Days 6 (Base 50)    
Moisture  
Dew Point 43 °F    
Average Humidity 66    
Maximum Humidity 96    
Minimum Humidity 31    
Precipitation  
Precipitation 0.00 in - - ()
Sea Level Pressure  
Sea Level Pressure 29.93 in    
Wind  
Wind Speed 3 mph (West)    
Max Wind Speed 10 mph    
Max Gust Speed 18 mph    
Visibility 10 miles    
Events      
Averages and records for this station are not official NWS values.
T = Trace of Precipitation, MM = Missing Value Source: NWS Daily Summary

Daily Weather History Graph

Daily Weather History Graph

Search for Another Location

Airport:

Trip Planner

Search our weather history database for the weather conditions in past years. The results will help you decide how hot, cold, wet, or windy it might be!

Date:

Astronomy

Apr. 12, 2013 Rise Set
Actual Time 6:39 AM CDT 7:35 PM CDT
Civil Twilight 6:14 AM CDT 8:01 PM CDT
Nautical Twilight 5:44 AM CDT 8:31 PM CDT
Astronomical Twilight 5:13 AM CDT 9:02 PM CDT
Moon 7:56 AM CDT (4/12) 9:59 PM CDT (4/12)
Length of Visible Light 13h 47m
Length of Day
12h 56m
Waxing Crescent, 5% of the Moon is Illuminated
Apr 12
Waxing Crescent
Apr 18
First Quarter
Apr 25
Full
May 2
Last Quarter
May 9
New

Hourly Weather History & Observations

Time (CDT) Temp. Windchill Dew Point Humidity Pressure Visibility Wind Dir Wind Speed Gust Speed Precip Events Conditions
12:53 AM 44.1 °F 42.5 °F 42.1 °F 93% 29.87 in 10.0 mi WSW 3.5 mph - N/A   Clear
1:53 AM 44.1 °F 42.5 °F 42.1 °F 93% 29.87 in 9.0 mi WNW 3.5 mph - N/A   Clear
2:53 AM 42.1 °F - 41.0 °F 96% 29.88 in 6.0 mi Calm Calm - N/A   Clear
3:53 AM 42.1 °F - 39.0 °F 89% 29.88 in 7.0 mi Calm Calm - N/A   Clear
4:53 AM 39.9 °F - 37.9 °F 93% 29.89 in 9.0 mi Calm Calm - N/A   Clear
5:53 AM 39.9 °F - 37.9 °F 93% 29.91 in 10.0 mi Calm Calm - N/A   Clear
6:53 AM 39.9 °F - 37.9 °F 93% 29.93 in 10.0 mi Calm Calm - N/A   Clear
7:53 AM 46.0 °F - 44.1 °F 93% 29.95 in 10.0 mi Calm Calm - N/A   Clear
8:53 AM 53.1 °F - 43.0 °F 69% 29.96 in 10.0 mi WSW 3.5 mph - N/A   Clear
9:53 AM 57.0 °F - 42.1 °F 57% 29.98 in 10.0 mi SSE 5.8 mph - N/A   Clear
10:53 AM 60.1 °F - 39.9 °F 47% 29.99 in 10.0 mi WSW 5.8 mph - N/A   Clear
11:53 AM 63.0 °F - 41.0 °F 45% 29.97 in 10.0 mi SW 8.1 mph - N/A   Clear
12:53 PM 66.0 °F - 42.1 °F 42% 29.96 in 10.0 mi West 10.4 mph 18.4 mph N/A   Mostly Cloudy
1:53 PM 68.0 °F - 42.1 °F 39% 29.95 in 10.0 mi West 10.4 mph - N/A   Mostly Cloudy
2:53 PM 71.1 °F - 43.0 °F 36% 29.93 in 10.0 mi WNW 8.1 mph - N/A   Overcast
3:53 PM 71.1 °F - 42.1 °F 35% 29.91 in 10.0 mi WSW 9.2 mph - N/A   Partly Cloudy
4:53 PM 73.0 °F - 42.1 °F 33% 29.91 in 10.0 mi WNW 8.1 mph - N/A   Scattered Clouds
5:53 PM 73.0 °F - 41.0 °F 31% 29.90 in 10.0 mi Variable 4.6 mph - N/A   Clear
6:53 PM 71.1 °F - 42.1 °F 35% 29.91 in 10.0 mi WNW 3.5 mph - N/A   Clear
7:53 PM 63.0 °F - 48.9 °F 60% 29.92 in 10.0 mi Calm Calm - N/A   Clear
8:53 PM 57.0 °F - 48.9 °F 74% 29.94 in 10.0 mi Calm Calm - N/A   Clear
9:53 PM 55.0 °F - 48.0 °F 77% 29.96 in 10.0 mi Calm Calm - N/A   Clear
10:53 PM 53.1 °F - 48.0 °F 83% 29.99 in 10.0 mi Calm Calm - N/A   Clear
11:53 PM 51.1 °F - 48.0 °F 89% 30.00 in 10.0 mi Calm Calm - 0.00 in   Clear